Home   Weather   Clearwater   Past weeks

Flag for USA Past Weather in Clearwater, Florida, USA — Yesterday and Last 2 Weeks

Now
88 °F

Scattered clouds.


Feels Like: 97 °F
Forecast: 76 / 86 °F
Wind: 14 mph from West

Location: St. Petersburg / Clearwater International Airport

Current Time: Sep 29, 2016 at 4:22:12 PM

Latest Report: Sep 29, 2016 at 3:53 PM


Visibility: 10 mi

Pressure: 29.98 "Hg

Humidity: 63%

Dew Point: 74 °F

Location of ClearwaterLocation

Past Weather in Clearwater — Graph

°F

Clearwater Temperature Yesterday

Maximum temperature yesterday: 89 °F (at 2:53 PM)
Minimum temperature yesterday: 75 °F (at 1:53 AM)
Average temperature yesterday: 80 °F

High & Low Weather Summary for the Past Weeks

 TemperatureHumidityPressure
High92 °F (Sep 16, 2:53 PM)100% (Sep 27, 3:53 AM)30.06 "Hg (Sep 27, 3:53 AM)
Low74 °F (Sep 26, 11:53 PM)46% (Sep 16, 2:53 PM)29.90 "Hg (Sep 27, 5:53 PM)
Average82 °F79%29.99 "Hg
* Reported Sep 14 2:53 PM — Sep 29 2:53 PM, Clearwater, Weather by CustomWeather, © 2016

Note: Actual official high and low records may vary slightly from our data, if they occured in-between our weather recording intervals... More about our weather records

Advertising

Clearwater Weather History for the Previous 24 Hours

Scroll right to see more
 ConditionsComfort  
Time TempWeatherWind HumidityBarometerVisibility
2:53 PM
Thu, Sep 29
85 °FPassing clouds.14 mph72%30.01 "Hg10 mi
1:53 PM82 °FLight rain. Broken clouds.8 mph79%30.02 "Hg10 mi
12:53 PM87 °FScattered clouds.16 mph67%30.04 "Hg10 mi
11:53 AM86 °FBroken clouds.15 mph67%30.06 "Hg10 mi
10:53 AM84 °FScattered clouds.14 mph74%30.05 "Hg10 mi
9:53 AM85 °FSunny.8 mph72%30.03 "Hg10 mi
8:53 AM82 °FSunny.5 mph85%30.02 "Hg10 mi
7:53 AM77 °FScattered clouds.6 mph96%30.01 "Hg10 mi
6:53 AM76 °FPassing clouds.5 mph97%30.01 "Hg10 mi
5:53 AM76 °FPassing clouds.5 mph94%29.99 "Hg10 mi
4:53 AM74 °FClear.5 mph97%29.98 "Hg10 mi
3:53 AM75 °FClear.6 mph94%29.99 "Hg10 mi
2:53 AM76 °FClear.8 mph94%30.01 "Hg10 mi
1:53 AM76 °FClear.6 mph100%30.02 "Hg10 mi
12:53 AM75 °FClear.3 mph96%30.03 "Hg10 mi
11:53 PM
Wed, Sep 28
75 °FClear.5 mph96%30.04 "Hg10 mi
10:53 PM75 °FClear.5 mph96%30.03 "Hg10 mi
9:53 PM77 °FClear.5 mph88%30.03 "Hg10 mi
8:53 PM78 °FClear.8 mph93%30.01 "Hg10 mi
7:53 PM79 °FLight rain. Clear.7 mph94%30.01 "Hg10 mi
6:53 PM81 °FLight rain. Broken clouds.8 mph85%29.99 "Hg10 mi
5:53 PM82 °FScattered clouds.9 mph79%29.98 "Hg10 mi
4:53 PM84 °FSunny.14 mph70%29.96 "Hg10 mi
Weather by CustomWeather, © 2016

See weather overviewHow to use our weather pages